sat.trackr.live / text

‹ back to catalog

STARLINK-2100

NORAD 47380 · 2021-005AH

PAYLOAD ACTIVE UNKNOWN

§ Identity

Operator
Country
US
Launch date
2021-01-20
Launch site
AFETR
Launch vehicle
Mass (kg)
RCS (m²)

Purposes: comms

External: N2YO · Heavens-Above · Gunter

§ Orbital elements

Epoch: 2026-05-25T03:03:43.421760Z

Period
91.49 min
Inclination
53.0563°
Eccentricity
0.0002902
Mean motion
15.73918880 rev/d
Perigee alt
345.8 km
Apogee alt
349.7 km
Semi-major
6,725.8 km
B*
6.2539e-4
RAAN
25.3364°
Arg perigee
210.3798°
Mean anomaly
149.7053°
Rev number
29,531

§ Raw data

STARLINK-21001 47380U 21005AH  26145.12758590  .00090907  00000+0  62539-3 0  99972 47380  53.0563  25.3364 0002902 210.3798 149.7053 15.73918880295311

JSON: /api/v1/satellites/47380 · /tle

For live sub-satellite position, see the globe view (requires WebGL).

§ Visibility from observer

Set your observer location to see the next 7 days of passes ≥ 10°. The values pass through the URL so the page stays shareable.

No JS? Fill the form by hand. The geolocation button needs JavaScript.